Time,TemperatureF,DewpointF,PressureIn,WindDirection,WindDirectionDegrees,WindSpeedMPH,WindSpeedGustMPH,Humidity,HourlyPrecipIn,Conditions,Clouds,dailyrainin,SoftwareType,DateUTC
2013-04-05 00:00:00,58.3,46.6,29.95,South,184,0.0,0.0,65,0.00,,---,0.00,VWS V13.01,2013-04-05 07:00:00,
2013-04-05 00:30:00,57.9,47.4,29.93,SW,228,0.0,0.0,68,0.00,,---,0.00,VWS V13.01,2013-04-05 07:30:00,
2013-04-05 01:00:00,57.2,47.9,29.94,WSW,258,0.0,0.0,71,0.00,,---,0.00,VWS V13.01,2013-04-05 08:00:00,
2013-04-05 01:30:00,56.7,48.5,29.95,WSW,248,0.0,0.0,74,0.00,,---,0.00,VWS V13.01,2013-04-05 08:30:00,
2013-04-05 02:30:00,57.2,47.5,29.94,WNW,282,0.0,0.0,70,0.00,,---,0.00,VWS V13.01,2013-04-05 09:30:00,
2013-04-05 03:00:00,57.9,47.8,29.94,SW,229,0.0,0.0,69,0.00,,---,0.00,VWS V13.01,2013-04-05 10:00:00,
2013-04-05 03:30:00,57.3,48.0,29.93,SW,222,0.0,0.0,71,0.00,,---,0.00,VWS V13.01,2013-04-05 10:30:00,
2013-04-05 04:00:00,56.5,48.0,29.93,WSW,244,0.0,0.0,73,0.00,,---,0.00,VWS V13.01,2013-04-05 11:00:00,
2013-04-05 04:30:00,55.9,46.7,29.94,SSW,212,0.0,0.0,71,0.00,,---,0.00,VWS V13.01,2013-04-05 11:30:00,
2013-04-05 05:00:00,55.7,46.5,29.94,WSW,242,0.0,0.0,71,0.00,,---,0.00,VWS V13.01,2013-04-05 12:00:00,
2013-04-05 05:30:00,54.2,48.2,29.93,WSW,252,13.0,17.0,80,0.00,,---,0.00,VWS V13.01,2013-04-05 12:30:00,
2013-04-05 06:00:00,53.6,48.6,29.94,SW,225,6.0,19.0,83,0.00,,---,0.00,VWS V13.01,2013-04-05 13:00:00,
2013-04-05 06:30:00,53.6,48.2,29.93,WSW,240,13.0,19.0,82,0.00,,---,0.00,VWS V13.01,2013-04-05 13:30:00,
2013-04-05 07:00:00,53.1,48.1,29.95,SW,230,0.0,15.0,83,0.00,,---,0.00,VWS V13.01,2013-04-05 14:00:00,
2013-04-05 07:30:00,53.9,48.9,29.95,South,174,0.0,0.0,83,0.00,,---,0.00,VWS V13.01,2013-04-05 14:30:00,
2013-04-05 08:00:00,55.6,48.5,29.95,South,171,0.0,0.0,77,0.00,,---,0.00,VWS V13.01,2013-04-05 15:00:00,
2013-04-05 08:30:00,57.9,48.9,29.95,SE,139,0.0,0.0,72,0.00,,---,0.00,VWS V13.01,2013-04-05 15:30:00,
2013-04-05 09:00:00,61.0,46.0,29.96,SSE,159,0.0,0.0,58,0.00,,---,0.00,VWS V13.01,2013-04-05 16:00:00,
2013-04-05 09:30:00,63.4,43.9,29.97,South,180,0.0,0.0,49,0.00,,---,0.00,VWS V13.01,2013-04-05 16:30:00,
2013-04-05 10:00:00,65.1,44.4,29.95,South,183,0.0,0.0,47,0.00,,---,0.00,VWS V13.01,2013-04-05 17:00:00,
2013-04-05 10:30:00,66.2,46.0,29.95,South,173,0.0,0.0,48,0.00,,---,0.00,VWS V13.01,2013-04-05 17:30:00,
2013-04-05 11:00:00,67.5,41.7,29.95,West,281,5.0,16.0,39,0.00,,---,0.00,VWS V13.01,2013-04-05 18:00:00,
2013-04-05 11:30:00,69.5,40.7,29.94,SW,230,9.0,21.0,35,0.00,,---,0.00,VWS V13.01,2013-04-05 18:30:00,
2013-04-05 12:00:00,68.2,45.5,29.94,West,274,0.0,23.0,44,0.00,,---,0.00,VWS V13.01,2013-04-05 19:00:00,
2013-04-05 12:30:00,67.5,46.6,29.94,South,190,0.0,0.0,47,0.00,,---,0.00,VWS V13.01,2013-04-05 19:30:00,
2013-04-05 13:30:00,66.5,46.2,29.92,South,189,0.0,0.0,48,0.00,,---,0.00,VWS V13.01,2013-04-05 20:30:00,
2013-04-05 14:01:00,68.0,43.5,29.91,WSW,242,0.0,0.0,41,0.00,,---,0.00,VWS V13.01,2013-04-05 21:01:00,
2013-04-05 14:30:00,68.8,40.8,29.90,South,185,0.0,0.0,36,0.00,,---,0.00,VWS V13.01,2013-04-05 21:30:00,
2013-04-05 15:00:00,69.7,42.3,29.89,WSW,256,0.0,0.0,37,0.00,,---,0.00,VWS V13.01,2013-04-05 22:00:00,
2013-04-05 15:30:00,70.0,41.1,29.89,SW,214,0.0,0.0,35,0.00,,---,0.00,VWS V13.01,2013-04-05 22:30:00,
2013-04-05 16:00:00,70.0,39.6,29.88,NW,308,0.0,0.0,33,0.00,,---,0.00,VWS V13.01,2013-04-05 23:00:00,
2013-04-05 16:30:00,67.7,39.8,29.89,WNW,287,0.0,0.0,36,0.00,,---,0.00,VWS V13.01,2013-04-05 23:30:00,
2013-04-05 17:00:00,65.0,40.8,29.89,WNW,287,0.0,0.0,41,0.00,,---,0.00,VWS V13.01,2013-04-06 00:00:00,
2013-04-05 17:30:00,62.6,39.8,29.90,West,270,0.0,0.0,43,0.00,,---,0.00,VWS V13.01,2013-04-06 00:30:00,
2013-04-05 18:00:00,61.4,40.5,29.90,WSW,254,0.0,0.0,46,0.00,,---,0.00,VWS V13.01,2013-04-06 01:00:00,
2013-04-05 18:30:00,61.8,40.8,29.89,West,259,0.0,0.0,46,0.00,,---,0.00,VWS V13.01,2013-04-06 01:30:00,
2013-04-05 19:00:00,61.9,38.0,29.88,ESE,121,0.0,0.0,41,0.00,,---,0.00,VWS V13.01,2013-04-06 02:00:00,
2013-04-05 20:30:00,59.1,32.9,29.90,WSW,237,0.0,0.0,37,0.00,,---,0.00,VWS V13.01,2013-04-06 03:30:00,
2013-04-05 21:30:00,56.9,33.5,29.91,West,281,3.0,11.0,41,0.00,,---,0.00,VWS V13.01,2013-04-06 04:30:00,
2013-04-05 22:01:00,60.1,28.7,29.93,WSW,252,6.0,16.0,30,0.00,,---,0.00,VWS V13.01,2013-04-06 05:01:00,
2013-04-05 22:30:00,59.1,31.5,29.91,WNW,302,5.0,11.0,35,0.00,,---,0.00,VWS V13.01,2013-04-06 05:30:00,
2013-04-05 23:00:00,59.7,37.2,29.92,West,269,12.0,27.0,43,0.00,,---,0.00,VWS V13.01,2013-04-06 06:00:00,
2013-04-05 23:30:00,58.6,35.0,29.93,WSW,241,2.0,19.0,41,0.00,,---,0.00,VWS V13.01,2013-04-06 06:30:00,